Погода в Антофагасте

Чили     23°37′04″S   70°22′53″W
темп.,
°C
ветер,
м/с
пор.,
м/с
влажн.,
%
обл.,
%
осадки,
мм/ч
давл.,
гПа
погр.,
м
8 марта, пн
пн800:00+18ю338790 0.0 1013354
03:00+18ю228587 0.0 1013325
06:00+17ююз118868 0.0 1013243
09:00+18в018473 0.0 1015318
12:00+21юз227166 0.0 1014528
15:00+21юз437046 0.0 1012605
18:00+19ююз447991 0.0 1011462
21:00+18ююв338987 0.1 1013182
9 марта, вт
вт900:00+18ююз34860 0.0 1014148
03:00+18ю22877 0.0 1012324
06:00+18ююв228654 0.0 1012289
09:00+18ююз118262 0.1 1014187
12:00+21зюз32690 0.0 1013462
15:00+21юз33682 0.0 1011590
18:00+20ююз327540 0.0 1011528
21:00+18ююв228856 0.0 1013113
10 марта, ср
ср1000:00+18св008173 0.0 101565
03:00+18с238353 0.0 1015280
06:00+19с227480 0.0 1014566
09:00+20с227186 0.0 1016645
12:00+22з436260 0.0 1015643
15:00+21зюз336533 0.0 1013661
18:00+20ююз336924 0.0 1012614
21:00+18ююв227923 0.0 1014154
11 марта, чт
чт1100:00+18всв11780 0.0 101555
03:00+17сз017911 0.0 101469
06:00+17зсз008223 0.0 1013128
09:00+19вюв017612 0.0 1014219
12:00+21юз32680 0.0 1013518
15:00+21ююз44727 0.0 1012599
18:00+19ю568357 0.0 1010408
21:00+18ю349152 0.0 1012249
12 марта, пт
пт1200:00+17ю349216 0.0 1013177
03:00+17ю229315 0.0 1012205
06:00+18юв128478 0.1 1012253
09:00+19ю337874 0.1 1012326
12:00+21ююз547612 0.0 1012484
15:00+20ююз557641 0.0 1011470
18:00+19ю448155 0.0 1011338
21:00+17ююв228937 0.0 1013126